SCP
0 -0 -0 0 0 0 0 0 0 0 0 0 0 0 0 0 0 0 0 -0 -0 -0 0 0 0 0 0 0 0 0 0 0 0 0 0 0 0 0
0 -0 0 0 0 0 0 0 0 0 0 0 0 0 0 0 0 0 0 0 0 0 0 0 0 0 0 0 0 0 0 0 0 0 0 0 0 0
0 0 0 0 0 0 0 0 0 0 0 0 0 0 0 0 0 0 0 0 0 0 0 0 0 0 0 0 0 0 0 0 0 0 0 0 0 0
0 0 0 0 0 0 0 0 0 0 0 0 0 0 0 0 0 0 0 0 0 0 0 0 0 0 0 0 0 0 0 0 0 0 0 0 0 0
0 0 0 0 0 0 0 0 0 0 0 0 0 0 0 0 0 0 0 0 0 0 0 0 0 0 0 0 0 0 0 0 0 0 0 0 0 0
0 0 0 0 -0 0 0 0 0 0 0 0 0 0 0 0 0 0 0 0 0 0 0 0 0 0 0 0 0 0 0 0 0 0 0 0 0 0
0 0 0 0 -0 0 0 0 0 0 0 0 0 0 0 0 0 0 0 0 0 0 0 0 0 0 0 0 0 0 0 0 0 0 0 0 0 0
0 0 0 0 0 -0 0 0 0 0 0 0 0 0 0 0 0 0 0 0 0 0 0 0 0 0 0 0 0 0 0 0 0 0 0 0 0 0
0 0 0 0 0 0 0 0 0 0 0 0 0 0 0 0 0 0 0 0 0 0 0 0 0 0 0 0 0 0 0 0 0 0 0 0 0 0
0 0 0 0 0 0 0 0 0 0 0 0 0 0 0 0 0 0 0 0 0 0 0 0 0 0 0 0 0 0 0 0 0 0 0 0 0 0
0 0 0 0 0 0 0 0 0 0 0 0 0 0 0 0 0 0 0 0 0 0 0 0 0 0 0 0 -0 0 0 0 0 0 0 0 0 0
0 0 0 0 0 0 0 0 0 0 0 0 0 0 0 0 0 0 0 0 0 0 0 0 0 0 0 0 0 0 0 0 0 0 0 0 0 0
0 0 1 0 0 0 0 1 0 0 0 0 0 0 0 0 0 0 0 0 0 0 0 0 0 0 0 0 0 0 0 0 0 0 0 0 0 0
0 0 0 0 0 0 0 0 0 0 0 0 0 0 0 0 0 0 0 0 0 0 0 0 0 0 0 0 0 0 0 0 0 0 0 0 0 0
0 0 0 0 0 0 0 0 0 0 0 0 0 0 0 0 0 0 0 0 0 0 0 0 0 0 0 0 0 0 0 0 0 0 0 0 0 0
0 0 0 0 0 0 0 0 0 0 0 0 0 0 0 0 0 0 0 0 0 0 0 0 0 0 0 0 0 0 0 0 0 0 0 0 0 0
0 0 0 0 0 0 0 0 0 0 0 0 0 0 0 0 0 0 0 0 0 0 0 0 0 0 0 0 0 0 0 0 0 0 0 0 0 0
0 0 0 0 0 0 0 0 0 0 0 0 0 0 0 0 0 0 0 0 0 0 0 0 0 0 0 0 0 0 0 0 0 0 0 0 0 0
0 0 0 0 0 0 0 0 0 0 0 0 0 0 0 0 0 0 0 0 0 0 0 0 0 0 0 0 0 0 0 0 0 0 0 0 0 0
0 0 0 0 0 0 0 0 0 0 0 0 0 0 0 0 -0 -0 0 0 0 0 0 0 0 0 0 0 0 0 0 0 0 0 0 0 0 -0
0 0 0 0 0 0 0 0 0 0 0 0 0 0 -0 -0 0 0 0 0 0 0 0 0 0 0 0 0 0 0 0 0 0 0 0 0 0 0
0 0 0 0 0 0 0 0 0 0 0 0 -0 -0 -0 0 0 -0 -0 0 0 0 0 0 0 0 0 0 0 0 0 0 0 0 0 0 0 0
0 0 0 0 0 0 0 0 0 -0 -0 -0 -0 0 0 0 -0 0 0 0 0 0 0 0 0 0 0 0 0 0 0 0 0 0 0 0 0 0
Wind_Speed_500mb
29 26 25 18 17 17 16 13 10 9 12 6 4 8 8 12 15 18 16 15 15 16 15 11 10 9 7 5 5 6 7 7 7 8 10 12 14 15
34 31 26 25 22 22 22 21 18 15 12 13 7 7 10 16 18 22 19 19 19 19 17 12 10 8 7 7 9 11 9 8 8 9 11 13 14 14
28 29 28 28 23 22 20 20 17 16 17 19 15 15 18 20 21 21 20 21 21 20 21 18 19 14 14 16 11 10 9 9 9 11 13 14 15 15
29 28 28 31 27 28 28 25 21 18 16 19 22 22 20 19 19 19 21 24 25 21 21 24 22 19 18 16 15 12 9 8 10 10 16 20 18 10
31 30 31 35 31 33 33 32 24 22 22 18 18 19 23 26 25 25 27 25 22 22 24 25 21 21 20 20 18 15 13 10 7 11 12 11 12 9
36 34 31 33 35 35 34 32 32 31 27 24 24 27 28 28 27 27 26 25 25 23 23 21 23 24 23 28 23 11 7 3 3 4 9 11 11 12
40 41 40 37 36 36 35 36 37 37 35 33 32 32 30 31 31 28 28 25 25 25 22 21 23 25 23 16 13 8 7 4 1 7 9 10 10 15
47 46 46 43 39 40 44 45 46 45 44 41 37 35 31 31 33 33 31 30 31 29 26 24 25 23 22 18 13 10 5 5 8 8 8 11 13 15
46 46 48 48 46 44 46 48 45 49 46 40 40 38 37 33 34 36 35 35 33 27 21 27 28 29 25 20 16 14 10 8 10 12 11 13 12 14
50 49 51 51 52 52 51 52 49 45 50 48 44 40 39 37 39 37 35 35 33 33 30 34 36 32 25 21 20 16 14 12 11 9 8 11 10 11
53 54 55 56 53 55 56 57 58 54 49 52 49 46 42 40 41 39 40 40 39 40 38 41 38 26 30 27 27 23 16 13 13 13 12 11 8 6
52 55 57 59 58 58 59 63 64 62 59 57 52 49 45 42 40 40 40 41 42 41 41 41 28 42 31 31 27 24 21 20 20 17 17 15 8 4
56 56 54 54 60 62 65 68 71 66 60 61 56 52 50 44 42 42 44 45 43 47 36 40 47 33 23 37 31 28 26 26 22 19 16 10 4 2
51 51 52 55 61 66 67 67 68 60 60 67 66 63 51 47 43 43 42 43 47 44 43 40 31 29 26 33 39 34 28 28 22 16 10 5 1 4
64 63 68 70 67 67 68 68 70 71 71 73 73 66 46 45 40 36 32 36 39 35 39 30 26 26 24 24 32 38 33 29 24 16 9 3 1 2
62 65 69 75 76 74 72 70 66 68 71 70 69 61 48 43 38 44 46 45 38 39 27 23 23 21 22 17 18 37 30 19 23 13 7 6 2 5
45 50 53 59 60 59 61 58 55 61 67 61 64 51 47 51 54 46 43 51 46 39 34 27 23 22 20 21 32 30 27 20 18 12 9 4 4 9
41 41 43 40 40 41 48 55 60 64 65 60 54 62 63 56 47 54 50 41 36 32 27 24 18 24 33 35 30 30 23 16 14 11 7 5 6 8
33 34 33 31 30 36 37 37 40 38 26 32 59 58 56 57 50 41 38 35 37 31 24 21 22 31 40 40 33 24 12 11 7 5 5 4 7 7
24 25 22 24 26 26 21 22 26 42 56 65 61 55 50 49 44 34 33 33 27 25 24 24 29 27 22 32 31 21 18 18 17 20 20 18 12 6
12 10 11 10 11 14 27 54 67 66 62 59 52 49 43 32 28 23 30 32 28 23 21 24 30 26 25 27 23 23 21 17 17 13 8 4 1 4
8 9 14 23 43 59 64 61 58 57 49 43 38 37 31 25 27 34 39 37 29 21 28 35 37 31 27 18 19 22 20 15 10 7 6 6 10 13
28 41 47 51 50 50 51 51 48 47 45 44 36 27 23 29 33 35 37 34 30 33 33 34 34 30 20 18 20 19 18 15 13 12 10 12 15 18
Wind_Direction_500mb
275 279 271 272 272 283 291 305 321 325 311 275 269 205 247 263 261 274 285 284 276 282 284 283 285 288 288 280 257 248 248 247 255 275 306 325 335 342
266 262 266 274 268 274 280 284 292 293 290 283 267 291 280 300 291 283 294 287 275 283 264 247 261 266 267 258 258 251 252 261 275 293 307 319 326 333
270 255 254 260 263 262 266 277 285 290 284 287 267 281 298 301 291 284 280 284 280 270 241 238 266 249 266 273 243 249 257 268 286 307 318 323 327 336
256 251 251 258 261 255 261 266 270 279 292 295 280 274 274 280 283 279 277 277 276 267 253 257 242 255 278 260 247 244 247 260 284 311 321 332 332 4
256 256 259 258 269 262 259 254 262 267 278 285 298 287 276 274 270 272 275 273 260 261 266 260 239 262 273 252 231 218 228 251 306 322 343 12 23 34
255 256 260 264 261 260 259 253 256 266 268 273 283 291 283 274 268 267 265 265 261 260 269 256 255 263 267 252 236 226 255 295 316 59 66 41 37 61
256 255 260 266 259 256 256 254 255 261 264 268 271 287 288 273 270 274 266 257 254 261 261 258 257 266 264 248 212 216 190 221 84 80 62 61 77 94
261 264 263 261 259 255 256 258 259 259 261 262 269 275 276 277 267 264 257 244 246 267 257 256 243 250 251 215 193 163 177 155 125 110 112 115 107 110
263 265 264 259 257 260 256 257 262 256 258 258 270 274 278 272 264 259 253 256 256 264 257 241 235 237 216 195 157 139 125 116 131 134 117 108 113 127
262 262 263 262 258 258 258 258 258 259 253 260 266 273 274 270 261 256 254 251 252 248 246 229 222 220 202 151 129 114 122 124 136 136 122 135 154 153
261 263 263 263 262 259 257 256 257 258 255 256 260 267 270 267 259 246 242 242 240 240 239 227 218 195 143 142 139 140 142 144 122 113 121 128 131 156
262 264 264 265 262 258 258 256 257 259 257 257 257 264 266 262 254 248 244 243 244 244 232 218 177 154 154 161 166 163 154 140 139 126 114 118 131 152
266 264 264 267 267 263 259 260 259 259 260 254 254 258 258 254 251 249 249 247 245 243 222 172 157 156 166 182 175 164 156 151 144 140 134 124 102 78
269 272 274 273 273 268 264 260 260 262 257 253 249 249 249 247 247 251 248 245 234 230 171 157 157 174 191 190 176 169 164 165 164 163 155 145 36 350
272 269 270 270 269 266 264 261 255 252 248 246 252 225 239 239 241 245 225 184 155 141 142 152 164 190 201 200 187 177 169 174 180 180 172 190 253 271
272 270 267 267 267 266 263 260 255 247 245 248 250 220 212 214 205 174 152 139 129 123 140 150 155 161 176 181 189 175 172 176 178 182 201 211 235 182
272 275 276 275 272 268 266 262 260 236 233 241 235 198 186 165 147 138 125 111 124 138 140 133 129 142 155 162 156 159 163 166 175 191 191 180 187 187
269 278 278 277 270 263 254 245 234 226 224 207 193 180 161 143 136 127 127 137 137 142 144 139 147 155 146 133 137 142 146 165 174 184 214 220 193 193
269 278 284 284 281 271 250 234 216 222 193 179 152 142 136 131 133 140 143 150 152 150 151 145 154 172 155 140 138 135 143 159 168 141 111 126 178 206
271 275 275 272 268 254 224 193 174 158 147 144 143 132 128 133 146 162 170 174 170 160 153 151 157 165 163 160 150 140 121 110 109 105 93 85 90 124
271 253 240 232 217 201 167 148 141 135 132 130 128 122 123 130 143 165 178 182 175 165 169 172 167 163 155 144 138 139 142 137 125 112 101 98 302 299
180 177 165 154 145 138 133 131 129 124 123 123 127 125 128 147 157 163 164 170 165 159 150 144 148 154 151 138 140 146 157 159 171 206 241 278 300 305
135 134 132 133 134 135 134 132 128 125 127 131 135 139 161 167 167 168 171 164 160 149 147 145 150 153 158 151 148 162 180 204 227 247 268 272 302 307
Wind_Speed_850mb
29 26 25 18 17 17 16 13 10 9 12 6 4 8 8 12 15 18 16 15 15 16 15 11 10 9 7 5 5 6 7 7 7 8 10 12 14 15
34 31 26 25 22 22 22 21 18 15 12 13 7 7 10 16 18 22 19 19 19 19 17 12 10 8 7 7 9 11 9 8 8 9 11 13 14 14
28 29 28 28 23 22 20 20 17 16 17 19 15 15 18 20 21 21 20 21 21 20 21 18 19 14 14 16 11 10 9 9 9 11 13 14 15 15
29 28 28 31 27 28 28 25 21 18 16 19 22 22 20 19 19 19 21 24 25 21 21 24 22 19 18 16 15 12 9 8 10 10 16 20 18 10
31 30 31 35 31 33 33 32 24 22 22 18 18 19 23 26 25 25 27 25 22 22 24 25 21 21 20 20 18 15 13 10 7 11 12 11 12 9
36 34 31 33 35 35 34 32 32 31 27 24 24 27 28 28 27 27 26 25 25 23 23 21 23 24 23 28 23 11 7 3 3 4 9 11 11 12
40 41 40 37 36 36 35 36 37 37 35 33 32 32 30 31 31 28 28 25 25 25 22 21 23 25 23 16 13 8 7 4 1 7 9 10 10 15
47 46 46 43 39 40 44 45 46 45 44 41 37 35 31 31 33 33 31 30 31 29 26 24 25 23 22 18 13 10 5 5 8 8 8 11 13 15
46 46 48 48 46 44 46 48 45 49 46 40 40 38 37 33 34 36 35 35 33 27 21 27 28 29 25 20 16 14 10 8 10 12 11 13 12 14
50 49 51 51 52 52 51 52 49 45 50 48 44 40 39 37 39 37 35 35 33 33 30 34 36 32 25 21 20 16 14 12 11 9 8 11 10 11
53 54 55 56 53 55 56 57 58 54 49 52 49 46 42 40 41 39 40 40 39 40 38 41 38 26 30 27 27 23 16 13 13 13 12 11 8 6
52 55 57 59 58 58 59 63 64 62 59 57 52 49 45 42 40 40 40 41 42 41 41 41 28 42 31 31 27 24 21 20 20 17 17 15 8 4
56 56 54 54 60 62 65 68 71 66 60 61 56 52 50 44 42 42 44 45 43 47 36 40 47 33 23 37 31 28 26 26 22 19 16 10 4 2
51 51 52 55 61 66 67 67 68 60 60 67 66 63 51 47 43 43 42 43 47 44 43 40 31 29 26 33 39 34 28 28 22 16 10 5 1 4
64 63 68 70 67 67 68 68 70 71 71 73 73 66 46 45 40 36 32 36 39 35 39 30 26 26 24 24 32 38 33 29 24 16 9 3 1 2
62 65 69 75 76 74 72 70 66 68 71 70 69 61 48 43 38 44 46 45 38 39 27 23 23 21 22 17 18 37 30 19 23 13 7 6 2 5
45 50 53 59 60 59 61 58 55 61 67 61 64 51 47 51 54 46 43 51 46 39 34 27 23 22 20 21 32 30 27 20 18 12 9 4 4 9
41 41 43 40 40 41 48 55 60 64 65 60 54 62 63 56 47 54 50 41 36 32 27 24 18 24 33 35 30 30 23 16 14 11 7 5 6 8
33 34 33 31 30 36 37 37 40 38 26 32 59 58 56 57 50 41 38 35 37 31 24 21 22 31 40 40 33 24 12 11 7 5 5 4 7 7
24 25 22 24 26 26 21 22 26 42 56 65 61 55 50 49 44 34 33 33 27 25 24 24 29 27 22 32 31 21 18 18 17 20 20 18 12 6
12 10 11 10 11 14 27 54 67 66 62 59 52 49 43 32 28 23 30 32 28 23 21 24 30 26 25 27 23 23 21 17 17 13 8 4 1 4
8 9 14 23 43 59 64 61 58 57 49 43 38 37 31 25 27 34 39 37 29 21 28 35 37 31 27 18 19 22 20 15 10 7 6 6 10 13
28 41 47 51 50 50 51 51 48 47 45 44 36 27 23 29 33 35 37 34 30 33 33 34 34 30 20 18 20 19 18 15 13 12 10 12 15 18
Wind_Direction_850mb
275 279 271 272 272 283 291 305 321 325 311 275 269 205 247 263 261 274 285 284 276 282 284 283 285 288 288 280 257 248 248 247 255 275 306 325 335 342
266 262 266 274 268 274 280 284 292 293 290 283 267 291 280 300 291 283 294 287 275 283 264 247 261 266 267 258 258 251 252 261 275 293 307 319 326 333
270 255 254 260 263 262 266 277 285 290 284 287 267 281 298 301 291 284 280 284 280 270 241 238 266 249 266 273 243 249 257 268 286 307 318 323 327 336
256 251 251 258 261 255 261 266 270 279 292 295 280 274 274 280 283 279 277 277 276 267 253 257 242 255 278 260 247 244 247 260 284 311 321 332 332 4
256 256 259 258 269 262 259 254 262 267 278 285 298 287 276 274 270 272 275 273 260 261 266 260 239 262 273 252 231 218 228 251 306 322 343 12 23 34
255 256 260 264 261 260 259 253 256 266 268 273 283 291 283 274 268 267 265 265 261 260 269 256 255 263 267 252 236 226 255 295 316 59 66 41 37 61
256 255 260 266 259 256 256 254 255 261 264 268 271 287 288 273 270 274 266 257 254 261 261 258 257 266 264 248 212 216 190 221 84 80 62 61 77 94
261 264 263 261 259 255 256 258 259 259 261 262 269 275 276 277 267 264 257 244 246 267 257 256 243 250 251 215 193 163 177 155 125 110 112 115 107 110
263 265 264 259 257 260 256 257 262 256 258 258 270 274 278 272 264 259 253 256 256 264 257 241 235 237 216 195 157 139 125 116 131 134 117 108 113 127
262 262 263 262 258 258 258 258 258 259 253 260 266 273 274 270 261 256 254 251 252 248 246 229 222 220 202 151 129 114 122 124 136 136 122 135 154 153
261 263 263 263 262 259 257 256 257 258 255 256 260 267 270 267 259 246 242 242 240 240 239 227 218 195 143 142 139 140 142 144 122 113 121 128 131 156
262 264 264 265 262 258 258 256 257 259 257 257 257 264 266 262 254 248 244 243 244 244 232 218 177 154 154 161 166 163 154 140 139 126 114 118 131 152
266 264 264 267 267 263 259 260 259 259 260 254 254 258 258 254 251 249 249 247 245 243 222 172 157 156 166 182 175 164 156 151 144 140 134 124 102 78
269 272 274 273 273 268 264 260 260 262 257 253 249 249 249 247 247 251 248 245 234 230 171 157 157 174 191 190 176 169 164 165 164 163 155 145 36 350
272 269 270 270 269 266 264 261 255 252 248 246 252 225 239 239 241 245 225 184 155 141 142 152 164 190 201 200 187 177 169 174 180 180 172 190 253 271
272 270 267 267 267 266 263 260 255 247 245 248 250 220 212 214 205 174 152 139 129 123 140 150 155 161 176 181 189 175 172 176 178 182 201 211 235 182
272 275 276 275 272 268 266 262 260 236 233 241 235 198 186 165 147 138 125 111 124 138 140 133 129 142 155 162 156 159 163 166 175 191 191 180 187 187
269 278 278 277 270 263 254 245 234 226 224 207 193 180 161 143 136 127 127 137 137 142 144 139 147 155 146 133 137 142 146 165 174 184 214 220 193 193
269 278 284 284 281 271 250 234 216 222 193 179 152 142 136 131 133 140 143 150 152 150 151 145 154 172 155 140 138 135 143 159 168 141 111 126 178 206
271 275 275 272 268 254 224 193 174 158 147 144 143 132 128 133 146 162 170 174 170 160 153 151 157 165 163 160 150 140 121 110 109 105 93 85 90 124
271 253 240 232 217 201 167 148 141 135 132 130 128 122 123 130 143 165 178 182 175 165 169 172 167 163 155 144 138 139 142 137 125 112 101 98 302 299
180 177 165 154 145 138 133 131 129 124 123 123 127 125 128 147 157 163 164 170 165 159 150 144 148 154 151 138 140 146 157 159 171 206 241 278 300 305
135 134 132 133 134 135 134 132 128 125 127 131 135 139 161 167 167 168 171 164 160 149 147 145 150 153 158 151 148 162 180 204 227 247 268 272 302 307